This demonstration page uses our WeatherBlox Daily Observations layout. Learn more.

Left ArrowRight Arrow

39.08367, -84.50855

Hourly Observations for March 10, 2015

Temp ( °F °C ) Dew Point ( °F °C ) Humidity (%) Winds ( mph kmh ) Pressure ( in mb ) Visibility ( mi km ) Precip ( " mm )
12:53 am 00:53 Cloudy 42 5.6 39 3.9 89 89 N N/A 30.17 1022 10 16 N/A
1:53 am 01:53 Cloudy 42 5.6 39 3.9 89 89 SSW 3 6 30.17 1022 10 16 N/A
2:53 am 02:53 Cloudy 42 5.6 38 3.3 85 85 N N/A 30.16 1022 10 16 N/A
3:53 am 03:53 Mostly Cloudy 41 5 38 3.3 89 89 N N/A 30.14 1021 10 16 N/A
4:53 am 04:53 Cloudy 40 4.4 38 3.3 93 93 SSW 3 6 30.12 1020 10 16 N/A
5:53 am 05:53 Cloudy with Light Rain 40 4.4 39 3.9 97 97 N N/A 30.11 1020 10 16 N/A
6:53 am 06:53 Cloudy with Light Rain 39 3.9 39 3.9 100 100 N N/A 30.10 1019 9 14 0.02 0.51
7:53 am 07:53 Cloudy with Light Rain 39 3.9 39 3.9 100 100 SW 3 6 30.10 1019 5 8 0.03 0.76
8:48 am 08:48 Cloudy with Rain 39 4 39 4 100 100 N N/A 30.09 1019 3 4 N/A
8:53 am 08:53 Cloudy with Rain 39 3.9 39 3.9 100 100 N N/A 30.09 1019 3 4 0.08 2.03
9:15 am 09:15 Cloudy with Rain 40 4.4 39 3.9 97 97 N N/A 30.09 1019 3 4 0.04 1.02
9:30 am 09:30 Cloudy with Rain 39 4 39 4 100 100 N N/A 30.09 1019 2 3 N/A
9:53 am 09:53 Cloudy with Light Rain 40 4.4 40 4.4 100 100 N N/A 30.09 1019 2 3 0.10 2.54
10:53 am 10:53 Cloudy with Light Rain 43 6.1 43 6.1 100 100 undefined N/A 30.07 1018 2 3 0.03 0.76
11:53 am 11:53 Cloudy with Light Rain 43 6.1 43 6.1 100 100 N N/A 30.06 1018 2 3 N/A
12:53 pm 12:53 Cloudy with Light Rain 46 7.8 46 7.8 100 100 NE 5 7 30.04 1017 2 3 0.02 0.51
1:11 pm 13:11 Cloudy with Light Rain 46 7.8 46 7.8 100 100 NNE 3 6 30.03 1017 2 3 0.01 0.25
1:18 pm 13:18 Cloudy with Rain 46 8 46 8 100 100 NE 5 7 30.03 1017 2 3 N/A
1:53 pm 13:53 Cloudy with Rain 47 8.3 47 8.3 100 100 NE 7 11 30.00 1016 2 3 0.09 2.29
2:53 pm 14:53 Cloudy with Rain 48 8.9 48 8.9 100 100 NNE 6 9 29.96 1015 2 3 0.13 3.30
3:53 pm 15:53 Cloudy with Rain 48 8.9 48 8.9 100 100 NNE 6 9 29.95 1014 2 3 0.19 4.83
4:53 pm 16:53 Cloudy with Light Rain 48 8.9 48 8.9 100 100 NNE 5 7 29.94 1014 3 4 0.06 1.52
5:53 pm 17:53 Cloudy with Light Rain 48 8.9 48 8.9 100 100 N N/A 29.93 1014 2 3 0.05 1.27
6:53 pm 18:53 Cloudy with Light Rain 48 8.9 48 8.9 100 100 N N/A 29.95 1014 1 2 0.03 0.76
7:48 pm 19:48 Cloudy with Fog 46 8 46 8 100 100 N N/A 29.97 1015 1 1 N/A
7:49 pm 19:49 Cloudy with Fog 46 8 46 8 100 100 N N/A 29.97 1015 1 1 N/A
8:04 pm 20:04 Cloudy with Mist and Fog 46 8 46 8 100 100 N N/A 29.97 1015 1 1 N/A
8:53 pm 20:53 Cloudy with Mist and Fog 47 8.3 47 8.3 100 100 N N/A 30.00 1016 1 2 N/A
9:07 pm 21:07 Cloudy with Mist and Fog 46 7.8 46 7.8 100 100 N N/A 30.00 1016 3 4 N/A
9:53 pm 21:53 Cloudy with Mist and Fog 47 8.3 47 8.3 100 100 N N/A 30.04 1017 2 3 N/A
10:09 pm 22:09 Cloudy with Mist and Fog 48 8.9 48 8.9 100 100 NNW 5 7 30.03 1017 5 8 N/A
10:49 pm 22:49 Cloudy with Mist and Fog 48 9 48 9 100 100 N N/A 30.06 1018 5 8 N/A
10:53 pm 22:53 Cloudy with Mist and Fog 48 8.9 48 8.9 100 100 NNW 3 6 30.05 1018 5 8 N/A
11:53 pm 23:53 Cloudy with Mist and Fog 45 7.2 45 7.2 100 100 SSW 3 6 30.07 1018 2 3 N/A

Powered by AerisWeather